Moffett NAS, CA

6:57 AM PST on November 22, 2017 (GMT -0800)
Moffett Federal Air Field

Weather History for KNUQ - May, 2013

Change the Weather History Date:

Saturday, May 4, 2013

  Actual Average Record
Temperature  
Mean Temperature 70 °F 61 °F  
Max Temperature 84 °F 71 °F 88 °F (1990)
Min Temperature 56 °F 52 °F 38 °F (1952)
Degree Days  
Heating Degree Days 0    
Month to date heating degree days 0  
Since 1 July heating degree days 2023  
Cooling Degree Days 5    
Month to date cooling degree days 29  
Year to date cooling degree days 58  
Growing Degree Days 20 (Base 50)    
Moisture  
Dew Point 49 °F    
Average Humidity 50    
Maximum Humidity 72    
Minimum Humidity 28    
Precipitation  
Precipitation 0.00 in 0.03 in 0.56 in (2005)
Month to date precipitation 0.00 0.11  
Year to date precipitation 1.78 9.17  
Since 1 July precipitation 9.55  
Sea Level Pressure  
Sea Level Pressure 29.68 in    
Wind  
Wind Speed 7 mph (NNW)    
Max Wind Speed 22 mph    
Max Gust Speed 25 mph    
Visibility 10 miles    
Events      
T = Trace of Precipitation, MM = Missing Value Source: NWS Daily Summary

Daily Weather History Graph

Daily Weather History Graph

Search for Another Location

Airport or City:

Trip Planner

Search our weather history database for the weather conditions in past years. The results will help you decide how hot, cold, wet, or windy it might be!

Date:

Astronomy

May. 04, 2013 Rise Set
Actual Time 6:09 AM PDT 8:01 PM PDT
Civil Twilight 5:41 AM PDT 8:29 PM PDT
Nautical Twilight 5:06 AM PDT 9:03 PM PDT
Astronomical Twilight 4:30 AM PDT 9:40 PM PDT
Moon 3:04 AM PDT (5/4) 3:10 PM PDT (5/4)
Length of Visible Light 14h 48m
Length of Day
13h 51m
Waning Crescent, 26% of the Moon is Illuminated
May 4
Waning Crescent
May 9
New
May 17
First Quarter
May 24
Full
May 31
Last Quarter

Hourly Weather History & Observations

Time (PDT) Temp. Heat Index Dew Point Humidity Pressure Visibility Wind Dir Wind Speed Gust Speed Precip Events Conditions
12:56 AM 66.0 °F - 43.0 °F 43% 29.81 in 10.0 mi Calm Calm - N/A   Clear
1:56 AM 64.0 °F - 43.0 °F 46% 29.78 in 10.0 mi Calm Calm - N/A   Clear
2:56 AM 63.0 °F - 43.0 °F 48% 29.76 in 10.0 mi Calm Calm - N/A   Clear
3:56 AM 61.0 °F - 45.0 °F 56% 29.76 in 10.0 mi West 3.5 mph - N/A   Clear
4:56 AM 60.1 °F - 46.0 °F 60% 29.76 in 10.0 mi West 3.5 mph - N/A   Clear
5:56 AM 60.1 °F - 48.0 °F 64% 29.75 in 10.0 mi Calm Calm - N/A   Clear
6:56 AM 60.1 °F - 48.9 °F 67% 29.75 in 10.0 mi Calm Calm - N/A   Clear
7:56 AM 64.9 °F - 53.1 °F 65% 29.74 in 9.0 mi Calm Calm - N/A   Clear
8:56 AM 68.0 °F - 53.1 °F 59% 29.73 in 9.0 mi Calm Calm - N/A   Clear
9:56 AM 73.0 °F - 55.0 °F 53% 29.71 in 9.0 mi North 4.6 mph - N/A   Clear
10:56 AM 73.9 °F - 54.0 °F 50% 29.70 in 9.0 mi North 5.8 mph - N/A   Clear
11:56 AM 79.0 °F - 50.0 °F 36% 29.68 in 10.0 mi North 9.2 mph - N/A   Clear
12:56 PM 79.0 °F - 52.0 °F 39% 29.67 in 10.0 mi North 12.7 mph - N/A   Clear
1:56 PM 82.0 °F - 46.9 °F 29% 29.63 in 10.0 mi NNW 10.4 mph - N/A   Clear
2:56 PM 81.0 °F - 50.0 °F 34% 29.61 in 10.0 mi NNW 12.7 mph - N/A   Clear
3:56 PM 81.0 °F 80.4 °F 53.1 °F 38% 29.59 in 10.0 mi NNW 16.1 mph - N/A   Clear
4:56 PM 75.9 °F - 53.1 °F 45% 29.57 in 10.0 mi NNW 18.4 mph - N/A   Clear
5:56 PM 73.0 °F - 54.0 °F 51% 29.59 in 10.0 mi NNW 8.1 mph - N/A   Clear
6:56 PM 68.0 °F - 53.1 °F 59% 29.59 in 10.0 mi North 12.7 mph - N/A   Clear
7:56 PM 64.9 °F - 54.0 °F 68% 29.60 in 10.0 mi NNW 10.4 mph - N/A   Clear
8:56 PM 62.1 °F - 53.1 °F 72% 29.62 in 10.0 mi NNW 4.6 mph - N/A   Clear
9:56 PM 60.1 °F - 46.9 °F 62% 29.64 in 10.0 mi SE 4.6 mph - N/A   Clear
10:56 PM 59.0 °F - 45.0 °F 60% 29.65 in 10.0 mi SSE 6.9 mph - N/A   Clear
11:56 PM 57.0 °F - 44.1 °F 62% 29.65 in 10.0 mi SE 10.4 mph - N/A   Clear